Starlink 35826

operational
NORAD ID: 66360 Int'l Des: 2025-254 Owner: SPXS Country: US Constellation: starlink
LEOCIRCULAR

About Starlink 35826

Description loading...

Live Position

Loading 3D Globe...

Upcoming Passes

Altitude History

Altitude vs Time

uPlot chart will show altitude changes over time

Two-Line Element Set

1 66360C 25254AD 25311.11437500 .00526100 00000+0 77595-3 0 3119
2 66360 53.1600 93.7399 0009191 261.9713 103.0265 16.03645445 13
Epoch: Nov 7, 2025 • Age: 18 hours

Current Status

Altitude 263.0 km
Velocity 7.75 km/s
Sub-Earth Point -6.04°S, 49.19°W
Launch Date Nov 6, 2025
Age 1 days
Type internet

Technical Details

Classification Payload
Mass 575.00 kg
Dry Mass 530.00 kg
Total Mass 575.00 kg
Length 0.30 m
Diameter 4.10 m
Span 29.00 m
Shape Box + pan
Manufacturer SPXS
Bus Type Starlink V2MO
Phase Status In Orbit
Owner/State SPXS/US

Large Constellations

Loading constellations...